IK1PCD-5 Weather Reports


time (UTC)temp
C
wind
direction
speed
KPH
gust
KPH
rain 1hr
cm
rain 24hr
cm
rain mn
cm
humidity
%
barometer
mb
20260507204807 -17 0.0 0.0 0.00 0.00 0.00 10 1013.7
20260507204307 -17 0.0 0.0 0.00 0.00 0.00 10 1013.7
20260507203802 -17 0.0 0.0 0.00 0.00 0.00 10 1013.7
20260507203257 -17 0.0 0.0 0.00 0.00 0.00 10 1013.6
20260507202807 -17 0.0 0.0 0.00 0.00 0.00 10 1013.7
20260507200257 -17 0.0 0.0 0.00 0.00 0.00 10 1013.5
20260507195807 -17 0.0 0.0 0.00 0.00 0.00 10 1013.3
20260507195307 -17 0.0 0.0 0.00 0.00 0.00 10 1013.3
20260507194807 -17 0.0 0.0 0.00 0.00 0.00 10 1013.2
20260507194307 -17 0.0 0.0 0.00 0.00 0.00 10 1013.2
20260507193802 -17 0.0 0.0 0.00 0.00 0.00 10 1013.2
20260507193257 -17 0.0 0.0 0.00 0.00 0.00 10 1013.2
20260507192807 -17 0.0 0.0 0.00 0.00 0.00 10 1013.2
20260507192307 -17 0.0 0.0 0.00 0.00 0.00 10 1013.2
20260507191807 -17 0.0 0.0 0.00 0.00 0.00 10 1013.2
20260507191307 -17 0.0 0.0 0.00 0.00 0.00 10 1013.2
20260507190802 -17 0.0 0.0 0.00 0.00 0.00 10 1013.1
20260507190257 -17 0.0 0.0 0.00 0.00 0.00 10 1013.2
20260507185807 -17 0.0 0.0 0.00 0.00 0.00 10 1013.1
20260507185307 -17 0.0 0.0 0.00 0.00 0.00 10 1013.1
20260507184807 -17 0.0 0.0 0.00 0.00 0.00 10 1013.1
20260507184307 -17 0.0 0.0 0.00 0.00 0.00 10 1013.1
20260507183803 -17 0.0 0.0 0.00 0.00 0.00 10 1013.1
20260507183257 -17 0.0 0.0 0.00 0.00 0.00 10 1013.1
20260507182807 -17 0.0 0.0 0.00 0.00 0.00 10 1013.0
20260507182307 -17 0.0 0.0 0.00 0.00 0.00 10 1013.2
20260507181807 -17 0.0 0.0 0.00 0.00 0.00 10 1013.2
20260507181307 -17 0.0 0.0 0.00 0.00 0.00 10 1013.1
20260507180803 -17 0.0 0.0 0.00 0.00 0.00 10 1013.1
20260507180258 -17 0.0 0.0 0.00 0.00 0.00 10 1013.0
20260507175807 -17 0.0 0.0 0.00 0.00 0.00 10 1013.1
20260507175307 -17 0.0 0.0 0.00 0.00 0.00 10 1013.1
20260507174807 -17 0.0 0.0 0.00 0.00 0.00 10 1013.1
20260507174307 -17 0.0 0.0 0.00 0.00 0.00 10 1013.1
20260507173802 -17 0.0 0.0 0.00 0.00 0.00 10 1013.1
20260507173258 -17 0.0 0.0 0.00 0.00 0.00 10 1013.0
20260507172807 -17 0.0 0.0 0.00 0.00 0.00 10 1012.8
20260507172308 -17 0.0 0.0 0.00 0.00 0.00 10 1012.8
20260507171807 -17 0.0 0.0 0.00 0.00 0.00 10 1012.7
20260507171307 -17 0.0 0.0 0.00 0.00 0.00 98 1012.7
20260507170802 -17 0.0 0.0 0.00 0.00 0.00 96 1012.7
20260507170257 -17 0.0 0.0 0.00 0.00 0.00 95 1012.7
20260507165807 -17 0.0 0.0 0.00 0.00 0.00 95 1012.8
20260507165307 -17 0.0 0.0 0.00 0.00 0.00 93 1012.8
20260507164807 -17 0.0 0.0 0.00 0.00 0.00 94 1012.7
20260507164307 -17 0.0 0.0 0.00 0.00 0.00 91 1012.7
20260507163802 -17 0.0 0.0 0.00 0.00 0.00 90 1012.7
20260507163257 -17 0.0 0.0 0.00 0.00 0.00 87 1012.7
20260507162807 -17 0.0 0.0 0.00 0.00 0.00 85 1012.6
20260507160258 -17 0.0 0.0 0.00 0.00 0.00 74 1012.7
20260507155807 -17 0.0 0.0 0.00 0.00 0.00 78 1012.7
20260507155307 -17 0.0 0.0 0.00 0.00 0.00 82 1012.8
20260507154807 -17 0.0 0.0 0.00 0.00 0.00 81 1012.7
20260507154306 -17 0.0 0.0 0.00 0.00 0.00 82 1012.7
20260507153802 -17 0.0 0.0 0.00 0.00 0.00 83 1012.7
20260507153257 -17 0.0 0.0 0.00 0.00 0.00 84 1012.7
20260507152807 -17 0.0 0.0 0.00 0.00 0.00 87 1012.7
20260507152307 -17 0.0 0.0 0.00 0.00 0.00 89 1012.7
20260507151808 -17 0.0 0.0 0.00 0.00 0.00 92 1012.7
20260507151307 -17 0.0 0.0 0.00 0.00 0.00 87 1012.6
20260507150803 -17 0.0 0.0 0.00 0.00 0.00 88 1012.6
20260507150257 -17 0.0 0.0 0.00 0.00 0.00 82 1012.6
20260507145807 -17 0.0 0.0 0.00 0.00 0.00 87 1012.7
20260507145307 -17 0.0 0.0 0.00 0.00 0.00 84 1012.6
20260507144807 -17 0.0 0.0 0.00 0.00 0.00 89 1012.7
20260507144307 -17 0.0 0.0 0.00 0.00 0.00 89 1012.7
20260507143802 -17 0.0 0.0 0.00 0.00 0.00 93 1012.7
20260507143258 -17 0.0 0.0 0.00 0.00 0.00 90 1012.7
20260507142807 -17 0.0 0.0 0.00 0.00 0.00 85 1012.7
20260507142307 -17 0.0 0.0 0.00 0.00 0.00 81 1012.7
20260507141807 -17 0.0 0.0 0.00 0.00 0.00 81 1012.6
20260507141307 -17 0.0 0.0 0.00 0.00 0.00 75 1012.6
20260507140803 -17 0.0 0.0 0.00 0.00 0.00 81 1012.7
20260507140258 -17 0.0 0.0 0.00 0.00 0.00 80 1012.7
20260507135807 -17 0.0 0.0 0.00 0.00 0.00 81 1012.7
20260507135307 -17 0.0 0.0 0.00 0.00 0.00 82 1012.7
20260507134807 -17 0.0 0.0 0.00 0.00 0.00 75 1012.7
20260507134307 -17 0.0 0.0 0.00 0.00 0.00 79 1012.7
20260507133802 -17 0.0 0.0 0.00 0.00 0.00 79 1012.7
20260507133258 -17 0.0 0.0 0.00 0.00 0.00 84 1012.7
20260507132807 -17 0.0 0.0 0.00 0.00 0.00 73 1012.7
20260507132308 -17 0.0 0.0 0.00 0.00 0.00 72 1012.7
20260507131807 -17 0.0 0.0 0.00 0.00 0.00 70 1012.7
20260507131307 -17 0.0 0.0 0.00 0.00 0.00 69 1012.7
20260507130802 -17 0.0 0.0 0.00 0.00 0.00 73 1012.7
20260507130257 -17 0.0 0.0 0.00 0.00 0.00 81 1012.7
20260507125807 -17 0.0 0.0 0.00 0.00 0.00 73 1012.8
20260507125307 -17 0.0 0.0 0.00 0.00 0.00 74 1012.8
20260507124807 -17 0.0 0.0 0.00 0.00 0.00 83 1012.7
20260507124307 -17 0.0 0.0 0.00 0.00 0.00 86 1012.7
20260507123802 -17 0.0 0.0 0.00 0.00 0.00 90 1012.8
20260507123257 -17 0.0 0.0 0.00 0.00 0.00 87 1012.8
20260507122807 -17 0.0 0.0 0.00 0.00 0.00 90 1012.8
20260507120258 -17 0.0 0.0 0.00 0.00 0.00 98 1013.0
20260507115807 -17 0.0 0.0 0.00 0.00 0.00 97 1013.0
20260507115307 -17 0.0 0.0 0.00 0.00 0.00 91 1013.1
20260507114807 -17 0.0 0.0 0.00 0.00 0.00 94 1013.1
20260507114307 -17 0.0 0.0 0.00 0.00 0.00 94 1013.1
20260507113802 -17 0.0 0.0 0.00 0.00 0.00 94 1013.0
20260507113258 -17 0.0 0.0 0.00 0.00 0.00 98 1013.0
20260507112807 -17 0.0 0.0 0.00 0.00 0.00 93 1013.1
20260507112307 -17 0.0 0.0 0.00 0.00 0.00 99 1013.1
20260507111807 -17 0.0 0.0 0.00 0.00 0.00 92 1013.1
20260507111307 -17 0.0 0.0 0.00 0.00 0.00 97 1013.1
20260507110802 -17 0.0 0.0 0.00 0.00 0.00 10 1013.1
20260507110257 -17 0.0 0.0 0.00 0.00 0.00 99 1013.2
20260507105808 -17 0.0 0.0 0.00 0.00 0.00 10 1013.2
20260507105307 -17 0.0 0.0 0.00 0.00 0.00 10 1013.2
20260507104807 -17 0.0 0.0 0.00 0.00 0.00 97 1013.2
20260507104307 -17 0.0 0.0 0.00 0.00 0.00 10 1013.2
20260507103802 -17 0.0 0.0 0.00 0.00 0.00 10 1013.2
20260507103257 -17 0.0 0.0 0.00 0.00 0.00 10 1013.2
20260507102807 -17 0.0 0.0 0.00 0.00 0.00 10 1013.2
20260507102307 -17 0.0 0.0 0.00 0.00 0.00 10 1013.2
20260507101807 -17 0.0 0.0 0.00 0.00 0.00 10 1013.2
20260507101307 -17 0.0 0.0 0.00 0.00 0.00 10 1013.2
20260507100802 -17 0.0 0.0 0.00 0.00 0.00 10 1013.2
20260507100257 -17 0.0 0.0 0.00 0.00 0.00 10 1013.2
20260507095807 -17 0.0 0.0 0.00 0.00 0.00 10 1013.2
20260507095307 -17 0.0 0.0 0.00 0.00 0.00 10 1013.1
20260507094807 -17 0.0 0.0 0.00 0.00 0.00 10 1013.1
20260507094307 -17 0.0 0.0 0.00 0.00 0.00 10 1013.1
20260507093802 -17 0.0 0.0 0.00 0.00 0.00 10 1013.1
20260507093257 -17 0.0 0.0 0.00 0.00 0.00 10 1013.0
20260507092807 -17 0.0 0.0 0.00 0.00 0.00 10 1013.1
20260507092307 -17 0.0 0.0 0.00 0.00 0.00 10 1013.1
20260507091807 -17 0.0 0.0 0.00 0.00 0.00 10 1013.0
20260507091307 -17 0.0 0.0 0.00 0.00 0.00 10 1013.0
20260507090802 -17 0.0 0.0 0.00 0.00 0.00 10 1012.8
20260507090257 -17 0.0 0.0 0.00 0.00 0.00 10 1013.0
20260507085807 -17 0.0 0.0 0.00 0.00 0.00 10 1013.1
20260507085307 -17 0.0 0.0 0.00 0.00 0.00 10 1013.1
20260507084807 -17 0.0 0.0 0.00 0.00 0.00 10 1013.0
20260507084307 -17 0.0 0.0 0.00 0.00 0.00 10 1012.8
20260507083802 -17 0.0 0.0 0.00 0.00 0.00 10 1012.8
20260507083257 -17 0.0 0.0 0.00 0.00 0.00 10 1012.8
20260507082807 -17 0.0 0.0 0.00 0.00 0.00 10 1012.8
20260507080257 -17 0.0 0.0 0.00 0.00 0.00 99 1012.5
20260507075757 -17 0.0 0.0 0.00 0.00 0.00 10 1012.6
20260507075038 -17 0.0 0.0 0.00 0.00 0.00 10 1012.5
20260507074533 -17 0.0 0.0 0.00 0.00 0.00 10 1012.5
20260507074029 -17 0.0 0.0 0.00 0.00 0.00 10 1012.6
20260507073538 -17 0.0 0.0 0.00 0.00 0.00 10 1012.6
20260507073038 -17 0.0 0.0 0.00 0.00 0.00 10 1012.6
20260507072538 -17 0.0 0.0 0.00 0.00 0.00 10 1012.6
20260507072033 -17 0.0 0.0 0.00 0.00 0.00 10 1012.5
20260507071533 -17 0.0 0.0 0.00 0.00 0.00 10 1012.5
20260507071028 -17 0.0 0.0 0.00 0.00 0.00 10 1012.3
20260507070538 -17 0.0 0.0 0.00 0.00 0.00 10 1012.3
20260507070038 -17 0.0 0.0 0.00 0.00 0.00 10 1012.3
20260507065538 -17 0.0 0.0 0.00 0.00 0.00 10 1012.2
20260507065038 -17 0.0 0.0 0.00 0.00 0.00 10 1012.2
20260507064533 -17 0.0 0.0 0.00 0.00 0.00 10 1012.2
20260507064028 -17 0.0 0.0 0.00 0.00 0.00 10 1012.2
20260507063538 -17 0.0 0.0 0.00 0.00 0.00 10 1012.2
20260507063038 -17 0.0 0.0 0.00 0.00 0.00 10 1012.2
20260507062538 -17 0.0 0.0 0.00 0.00 0.00 10 1012.1
20260507062038 -17 0.0 0.0 0.00 0.00 0.00 10 1012.1
20260507061533 -17 0.0 0.0 0.00 0.00 0.00 10 1012.1
20260507061029 -17 0.0 0.0 0.00 0.00 0.00 10 1012.0
20260507060538 -17 0.0 0.0 0.00 0.00 0.00 10 1012.0
20260507060038 -17 0.0 0.0 0.00 0.00 0.00 10 1012.0
20260507055538 -17 0.0 0.0 0.00 0.00 0.00 10 1012.0
20260507055038 -17 0.0 0.0 0.00 0.00 0.00 10 1011.8
20260507054533 -17 0.0 0.0 0.00 0.00 0.00 10 1011.7
20260507054028 -17 0.0 0.0 0.00 0.00 0.00 10 1011.7
20260507053538 -17 0.0 0.0 0.00 0.00 0.00 10 1011.7
20260507053038 -17 0.0 0.0 0.00 0.00 0.00 10 1011.7
20260507052538 -17 0.0 0.0 0.00 0.00 0.00 10 1011.6
20260507052038 -17 0.0 0.0 0.00 0.00 0.00 10 1011.5
20260507051533 -17 0.0 0.0 0.00 0.00 0.00 10 1011.3
20260507051028 -17 0.0 0.0 0.00 0.00 0.00 10 1011.5
20260507050538 -17 0.0 0.0 0.00 0.00 0.00 10 1011.3
20260507050038 -17 0.0 0.0 0.00 0.00 0.00 10 1011.3
20260507045538 -17 0.0 0.0 0.00 0.00 0.00 10 1011.2
20260507045038 -17 0.0 0.0 0.00 0.00 0.00 10 1011.2
20260507044533 -17 0.0 0.0 0.00 0.00 0.00 10 1011.2
20260507044028 -17 0.0 0.0 0.00 0.00 0.00 10 1011.2
20260507043538 -17 0.0 0.0 0.00 0.00 0.00 10 1011.2
20260507043038 -17 0.0 0.0 0.00 0.00 0.00 10 1011.2
20260507042538 -17 0.0 0.0 0.00 0.00 0.00 10 1011.1
20260507040538 -17 0.0 0.0 0.00 0.00 0.00 10 1011.0
20260507040038 -17 0.0 0.0 0.00 0.00 0.00 10 1011.0
20260507035539 -17 0.0 0.0 0.00 0.00 0.00 10 1011.1
20260507035038 -17 0.0 0.0 0.00 0.00 0.00 10 1011.0
20260507034533 -17 0.0 0.0 0.00 0.00 0.00 10 1010.8
20260507034028 -17 0.0 0.0 0.00 0.00 0.00 10 1010.8
20260507033538 -17 0.0 0.0 0.00 0.00 0.00 10 1011.0
20260507033038 -17 0.0 0.0 0.00 0.00 0.00 10 1010.8
20260507032538 -17 0.0 0.0 0.00 0.00 0.00 10 1010.8
20260507032038 -17 0.0 0.0 0.00 0.00 0.00 10 1010.8
20260507031534 -17 0.0 0.0 0.00 0.00 0.00 10 1010.8
20260507031029 -17 0.0 0.0 0.00 0.00 0.00 10 1010.8
20260507030538 -17 0.0 0.0 0.00 0.00 0.00 10 1010.8
20260507030038 -17 0.0 0.0 0.00 0.00 0.00 10 1011.0
20260507025538 -17 0.0 0.0 0.00 0.00 0.00 10 1010.8
20260507025038 -17 0.0 0.0 0.00 0.00 0.00 10 1010.8
20260507024533 -17 0.0 0.0 0.00 0.00 0.00 10 1010.8
20260507024028 -17 0.0 0.0 0.00 0.00 0.00 10 1010.8
20260507023539 -17 0.0 0.0 0.00 0.00 0.00 10 1010.8
20260507023038 -17 0.0 0.0 0.00 0.00 0.00 10 1010.7
20260507022538 -17 0.0 0.0 0.00 0.00 0.00 10 1010.7
20260507022038 -17 0.0 0.0 0.00 0.00 0.00 10 1010.8
20260507021533 -17 0.0 0.0 0.00 0.00 0.00 10 1011.0
20260507021028 -17 0.0 0.0 0.00 0.00 0.00 10 1011.0
20260507020539 -17 0.0 0.0 0.00 0.00 0.00 10 1010.8
20260507020038 -17 0.0 0.0 0.00 0.00 0.00 10 1010.8
20260507015538 -17 0.0 0.0 0.00 0.00 0.00 10 1011.1
20260507015038 -17 0.0 0.0 0.00 0.00 0.00 10 1011.0
20260507014533 -17 0.0 0.0 0.00 0.00 0.00 10 1011.0
20260507014028 -17 0.0 0.0 0.00 0.00 0.00 10 1011.0
20260507013538 -17 0.0 0.0 0.00 0.00 0.00 10 1010.8
20260507013038 -17 0.0 0.0 0.00 0.00 0.00 10 1010.8
20260507012538 -17 0.0 0.0 0.00 0.00 0.00 10 1010.8
20260507012038 -17 0.0 0.0 0.00 0.00 0.00 10 1011.0
20260507011533 -17 0.0 0.0 0.00 0.00 0.00 10 1011.0
20260507011028 -17 0.0 0.0 0.00 0.00 0.00 10 1010.8
20260507010539 -17 0.0 0.0 0.00 0.00 0.00 10 1010.8
20260507010039 -17 0.0 0.0 0.00 0.00 0.00 10 1010.8
20260507005538 -17 0.0 0.0 0.00 0.00 0.00 10 1010.8
20260507005038 -17 0.0 0.0 0.00 0.00 0.00 10 1011.0
20260507004533 -17 0.0 0.0 0.00 0.00 0.00 10 1011.0
20260507004028 -17 0.0 0.0 0.00 0.00 0.00 10 1010.8
20260507003538 -17 0.0 0.0 0.00 0.00 0.00 10 1011.0
20260507003038 -17 0.0 0.0 0.00 0.00 0.00 10 1010.8
20260507002538 -17 0.0 0.0 0.00 0.00 0.00 10 1010.8
20260507000538 -17 0.0 0.0 0.00 0.00 0.00 10 1010.8
20260507000037 -17 0.0 0.0 0.00 0.00 0.00 10 1010.7
20260506235538 -17 0.0 0.0 0.00 0.00 0.00 10 1010.7
20260506235038 -17 0.0 0.0 0.00 0.00 0.00 10 1010.8
20260506234533 -17 0.0 0.0 0.00 0.00 0.00 10 1011.0
20260506234028 -17 0.0 0.0 0.00 0.00 0.00 10 1011.0
20260506233538 -17 0.0 0.0 0.00 0.00 0.00 10 1011.1
20260506233037 -17 0.0 0.0 0.00 0.00 0.00 10 1011.1
20260506232538 -17 0.0 0.0 0.00 0.00 0.00 10 1011.0
20260506232038 -17 0.0 0.0 0.00 0.00 0.00 10 1011.0
20260506231533 -17 0.0 0.0 0.00 0.00 0.00 10 1011.1
20260506231028 -17 0.0 0.0 0.00 0.00 0.00 10 1011.1
20260506230538 -17 0.0 0.0 0.00 0.00 0.00 10 1011.1
20260506230038 -17 0.0 0.0 0.00 0.00 0.00 10 1011.1
20260506225538 -17 0.0 0.0 0.00 0.00 0.00 10 1011.0
20260506225038 -17 0.0 0.0 0.00 0.00 0.00 10 1011.0
20260506224533 -17 0.0 0.0 0.00 0.00 0.00 10 1010.8
20260506224028 -17 0.0 0.0 0.00 0.00 0.00 10 1011.1
20260506223538 -17 0.0 0.0 0.00 0.00 0.00 10 1011.1
20260506223037 -17 0.0 0.0 0.00 0.00 0.00 10 1011.0
20260506222538 -17 0.0 0.0 0.00 0.00 0.00 10 1011.0
20260506222038 -17 0.0 0.0 0.00 0.00 0.00 10 1011.0
20260506221533 -17 0.0 0.0 0.00 0.00 0.00 10 1010.8
20260506221028 -17 0.0 0.0 0.00 0.00 0.00 10 1010.8
20260506220537 -17 0.0 0.0 0.00 0.00 0.00 10 1011.0
20260506220038 -17 0.0 0.0 0.00 0.00 0.00 10 1011.0
20260506215538 -17 0.0 0.0 0.00 0.00 0.00 10 1011.1
20260506215038 -17 0.0 0.0 0.00 0.00 0.00 10 1011.0
20260506214533 -17 0.0 0.0 0.00 0.00 0.00 10 1011.1
20260506214028 -17 0.0 0.0 0.00 0.00 0.00 10 1011.1
20260506213538 -17 0.0 0.0 0.00 0.00 0.00 10 1011.1
20260506213038 -17 0.0 0.0 0.00 0.00 0.00 10 1011.2
20260506212538 -17 0.0 0.0 0.00 0.00 0.00 10 1011.1
20260506212038 -17 0.0 0.0 0.00 0.00 0.00 10 1011.0
20260506211533 -17 0.0 0.0 0.00 0.00 0.00 95 1011.1
20260506211028 -17 0.0 0.0 0.00 0.00 0.00 10 1011.1
20260506210538 -17 0.0 0.0 0.00 0.00 0.00 10 1011.1
20260506210038 -17 0.0 0.0 0.00 0.00 0.00 10 1011.2
20260506205538 -17 0.0 0.0 0.00 0.00 0.00 10 1011.1